QPF
0.00 0.00 0.00 0.00 0.00 0.00 0.00 0.00 0.00 0.00 0.00 0.00 0.00 0.00 0.00 0.00 0.00 0.00 0.00 0.00 0.00 0.00 0.00 0.00 0.00 0.00 0.00 0.00 0.00 0.00 0.00 0.00 0.00 0.00 0.00 0.00 0.00 0.00 0.00 0.00 0.00 0.00 0.00 0.00 0.00 0.00 0.00
0.00 0.00 0.00 0.00 0.00 0.00 0.00 0.00 0.00 0.00 0.00 0.00 0.00 0.00 0.00 0.00 0.00 0.00 0.00 0.00 0.00 0.00 0.00 0.00 0.00 0.00 0.00 0.00 0.00 0.00 0.00 0.00 0.00 0.00 0.00 0.00 0.00 0.00 0.00 0.00 0.00 0.00 0.00 0.00 0.00 0.00 0.00
0.00 0.00 0.00 0.00 0.00 0.00 0.00 0.00 0.00 0.00 0.00 0.00 0.00 0.00 0.00 0.00 0.00 0.00 0.00 0.00 0.00 0.00 0.00 0.00 0.00 0.00 0.00 0.00 0.00 0.00 0.00 0.00 0.00 0.00 0.00 0.00 0.00 0.00 0.00 0.00 0.00 0.00 0.00 0.00 0.00 0.00 0.00
0.00 0.00 0.00 0.00 0.00 0.00 0.00 0.00 0.00 0.00 0.00 0.00 0.00 0.00 0.00 0.00 0.00 0.00 0.00 0.00 0.00 0.00 0.00 0.00 0.00 0.00 0.00 0.00 0.00 0.00 0.00 0.00 0.00 0.00 0.00 0.00 0.00 0.00 0.00 0.00 0.00 0.00 0.00 0.00 0.00 0.00 0.00
0.00 0.00 0.00 0.00 0.00 0.00 0.00 0.00 0.00 0.00 0.00 0.00 0.00 0.00 0.00 0.00 0.00 0.00 0.00 0.00 0.00 0.00 0.00 0.00 0.00 0.00 0.00 0.00 0.00 0.00 0.00 0.00 0.00 0.00 0.00 0.00 0.00 0.00 0.00 0.00 0.00 0.00 0.01 0.00 0.00 0.00 0.00
0.00 0.00 0.00 0.00 0.00 0.00 0.00 0.00 0.00 0.00 0.00 0.00 0.00 0.00 0.00 0.00 0.00 0.00 0.00 0.00 0.00 0.00 0.00 0.00 0.00 0.00 0.00 0.00 0.00 0.00 0.00 0.00 0.00 0.00 0.00 0.00 0.00 0.00 0.00 0.01 0.02 0.01 0.00 0.00 0.00 0.00 0.00
0.00 0.00 0.00 0.00 0.00 0.00 0.00 0.00 0.00 0.00 0.00 0.00 0.00 0.00 0.00 0.00 0.00 0.00 0.00 0.00 0.00 0.00 0.00 0.00 0.00 0.00 0.00 0.00 0.00 0.00 0.00 0.00 0.00 0.00 0.00 0.00 0.00 0.01 0.01 0.00 0.01 0.00 0.00 0.00 0.00 0.00 0.00
0.00 0.00 0.00 0.00 0.00 0.00 0.00 0.00 0.00 0.00 0.00 0.00 0.00 0.00 0.00 0.00 0.00 0.00 0.00 0.00 0.00 0.00 0.00 0.00 0.00 0.00 0.00 0.00 0.00 0.00 0.00 0.00 0.00 0.00 0.00 0.00 0.00 0.01 0.00 0.00 0.00 0.00 0.00 0.00 0.00 0.00 0.00
0.00 0.00 0.00 0.00 0.00 0.00 0.00 0.00 0.00 0.00 0.00 0.00 0.00 0.00 0.00 0.00 0.00 0.00 0.00 0.00 0.00 0.00 0.00 0.00 0.00 0.00 0.00 0.00 0.00 0.00 0.00 0.00 0.00 0.00 0.00 0.00 0.00 0.00 0.00 0.00 0.00 0.00 0.01 0.01 0.01 0.00 0.00
0.00 0.00 0.00 0.00 0.00 0.00 0.00 0.00 0.00 0.00 0.00 0.00 0.00 0.00 0.00 0.00 0.00 0.00 0.00 0.00 0.00 0.00 0.00 0.00 0.00 0.00 0.00 0.00 0.00 0.00 0.00 0.00 0.00 0.00 0.00 0.00 0.00 0.00 0.00 0.00 0.00 0.02 0.00 0.00 0.00 0.00 0.00
0.00 0.00 0.00 0.00 0.00 0.00 0.00 0.00 0.00 0.00 0.00 0.00 0.00 0.00 0.00 0.00 0.00 0.00 0.00 0.00 0.00 0.00 0.00 0.00 0.00 0.00 0.00 0.00 0.00 0.00 0.00 0.00 0.00 0.00 0.00 0.00 0.00 0.00 0.00 0.00 0.00 0.02 0.00 0.00 0.00 0.00 0.00
0.00 0.00 0.00 0.00 0.00 0.00 0.00 0.00 0.00 0.00 0.00 0.00 0.00 0.00 0.00 0.00 0.00 0.00 0.00 0.00 0.00 0.00 0.00 0.00 0.00 0.00 0.00 0.00 0.00 0.00 0.00 0.00 0.00 0.00 0.00 0.00 0.00 0.00 0.00 0.00 0.00 0.00 0.00 0.00 0.00 0.00 0.01
0.00 0.00 0.00 0.00 0.00 0.00 0.00 0.00 0.00 0.00 0.00 0.00 0.00 0.00 0.00 0.00 0.00 0.00 0.00 0.00 0.00 0.00 0.00 0.00 0.00 0.00 0.00 0.00 0.00 0.00 0.00 0.00 0.00 0.00 0.00 0.00 0.00 0.00 0.00 0.00 0.00 0.00 0.00 0.00 0.00 0.00 0.01
0.00 0.00 0.00 0.00 0.00 0.00 0.00 0.00 0.00 0.00 0.00 0.00 0.00 0.00 0.00 0.00 0.00 0.00 0.00 0.00 0.00 0.00 0.00 0.00 0.00 0.00 0.00 0.00 0.00 0.00 0.00 0.00 0.00 0.00 0.00 0.00 0.00 0.00 0.00 0.00 0.00 0.00 0.00 0.01 0.00 0.00 0.00
0.00 0.00 0.00 0.00 0.00 0.00 0.00 0.00 0.00 0.00 0.00 0.00 0.00 0.00 0.00 0.00 0.00 0.00 0.00 0.00 0.00 0.00 0.00 0.00 0.00 0.00 0.00 0.00 0.00 0.00 0.00 0.00 0.00 0.00 0.00 0.00 0.00 0.00 0.00 0.00 0.00 0.00 0.00 0.00 0.00 0.00 0.00
0.00 0.00 0.00 0.00 0.00 0.00 0.00 0.00 0.00 0.00 0.00 0.00 0.00 0.00 0.00 0.00 0.00 0.00 0.00 0.00 0.00 0.00 0.00 0.00 0.00 0.00 0.00 0.00 0.00 0.00 0.00 0.00 0.00 0.00 0.00 0.00 0.00 0.00 0.00 0.00 0.00 0.00 0.00 0.00 0.00 0.00 0.00
0.00 0.00 0.00 0.00 0.00 0.00 0.00 0.00 0.00 0.00 0.00 0.00 0.00 0.00 0.00 0.00 0.00 0.00 0.00 0.00 0.00 0.00 0.00 0.00 0.00 0.00 0.00 0.00 0.00 0.00 0.00 0.00 0.00 0.00 0.00 0.00 0.00 0.00 0.00 0.00 0.00 0.00 0.00 0.00 0.00 0.00 0.00
0.00 0.00 0.00 0.00 0.00 0.00 0.00 0.00 0.00 0.00 0.00 0.00 0.00 0.00 0.00 0.00 0.00 0.00 0.00 0.00 0.00 0.00 0.00 0.00 0.00 0.00 0.00 0.00 0.00 0.00 0.00 0.00 0.00 0.00 0.00 0.00 0.00 0.00 0.00 0.00 0.00 0.00 0.00 0.00 0.00 0.00 0.00
0.00 0.00 0.00 0.00 0.00 0.00 0.00 0.00 0.00 0.00 0.00 0.00 0.00 0.00 0.00 0.00 0.00 0.00 0.00 0.00 0.00 0.00 0.00 0.00 0.00 0.00 0.00 0.00 0.00 0.00 0.00 0.00 0.00 0.00 0.00 0.00 0.00 0.00 0.00 0.00 0.00 0.00 0.00 0.00 0.00 0.00 0.00
0.00 0.00 0.00 0.00 0.00 0.00 0.00 0.00 0.00 0.00 0.00 0.00 0.00 0.00 0.00 0.00 0.00 0.00 0.00 0.00 0.00 0.00 0.00 0.00 0.00 0.00 0.00 0.00 0.00 0.00 0.00 0.00 0.00 0.00 0.00 0.00 0.00 0.00 0.00 0.00 0.00 0.00 0.00 0.00 0.00 0.00 0.00
0.00 0.00 0.00 0.00 0.00 0.00 0.00 0.00 0.00 0.00 0.00 0.00 0.00 0.00 0.00 0.00 0.00 0.00 0.00 0.00 0.00 0.00 0.00 0.00 0.00 0.00 0.00 0.00 0.00 0.00 0.00 0.00 0.00 0.00 0.00 0.00 0.00 0.00 0.00 0.00 0.00 0.00 0.00 0.00 0.00 0.00 0.00
0.00 0.00 0.00 0.00 0.00 0.00 0.00 0.00 0.00 0.00 0.00 0.00 0.00 0.00 0.00 0.00 0.00 0.00 0.00 0.00 0.00 0.00 0.00 0.00 0.00 0.00 0.00 0.00 0.00 0.00 0.00 0.00 0.00 0.00 0.00 0.00 0.00 0.00 0.00 0.00 0.00 0.00 0.00 0.00 0.00 0.00 0.00
0.00 0.00 0.00 0.00 0.00 0.00 0.00 0.00 0.00 0.00 0.00 0.00 0.00 0.00 0.00 0.00 0.00 0.00 0.00 0.00 0.00 0.00 0.00 0.00 0.00 0.00 0.00 0.00 0.00 0.00 0.00 0.00 0.00 0.00 0.00 0.00 0.00 0.00 0.00 0.00 0.00 0.00 0.00 0.00 0.00 0.00 0.00
0.00 0.00 0.00 0.00 0.00 0.00 0.00 0.00 0.00 0.00 0.00 0.00 0.00 0.00 0.00 0.00 0.00 0.00 0.00 0.00 0.00 0.00 0.00 0.00 0.00 0.00 0.00 0.00 0.00 0.00 0.00 0.00 0.00 0.00 0.00 0.00 0.00 0.00 0.00 0.00 0.00 0.00 0.00 0.00 0.00 0.00 0.00
0.00 0.00 0.00 0.00 0.00 0.00 0.00 0.00 0.00 0.00 0.00 0.00 0.00 0.00 0.00 0.00 0.00 0.00 0.00 0.00 0.00 0.00 0.00 0.00 0.00 0.00 0.00 0.00 0.00 0.00 0.00 0.00 0.00 0.00 0.00 0.00 0.00 0.00 0.00 0.00 0.00 0.00 0.00 0.00 0.00 0.00 0.00
0.00 0.00 0.00 0.00 0.00 0.00 0.00 0.00 0.00 0.00 0.00 0.00 0.01 0.02 0.03 0.01 0.00 0.00 0.00 0.00 0.00 0.00 0.00 0.00 0.00 0.00 0.00 0.00 0.00 0.00 0.00 0.00 0.00 0.00 0.00 0.00 0.00 0.00 0.00 0.00 0.00 0.00 0.00 0.00 0.00 0.00 0.00
0.00 0.00 0.00 0.00 0.00 0.00 0.00 0.00 0.00 0.00 0.00 0.00 0.00 0.04 0.07 0.03 0.00 0.00 0.00 0.00 0.00 0.01 0.02 0.02 0.02 0.00 0.00 0.00 0.00 0.00 0.00 0.00 0.00 0.00 0.00 0.00 0.00 0.00 0.00 0.00 0.00 0.00 0.00 0.00 0.00 0.00 0.00
0.00 0.00 0.00 0.00 0.00 0.00 0.00 0.00 0.00 0.00 0.00 0.00 0.00 0.03 0.06 0.04 0.00 0.00 0.00 0.00 0.00 0.01 0.02 0.03 0.04 0.03 0.01 0.00 0.00 0.00 0.00 0.00 0.00 0.00 0.00 0.00 0.00 0.00 0.00 0.00 0.00 0.00 0.00 0.00 0.00 0.00 0.00
0.00 0.00 0.00 0.00 0.00 0.00 0.00 0.00 0.00 0.00 0.00 0.00 0.01 0.07 0.09 0.05 0.00 0.00 0.00 0.00 0.00 0.00 0.00 0.00 0.03 0.05 0.03 0.01 0.00 0.00 0.00 0.00 0.00 0.00 0.00 0.00 0.00 0.00 0.00 0.00 0.00 0.00 0.00 0.00 0.00 0.00 0.00
MSLP
1021.68 1021.46 1021.27 1020.93 1020.59 1020.25 1019.85 1019.45 1019.06 1018.70 1018.26 1017.76 1017.29 1016.66 1015.95 1015.29 1014.78 1014.12 1013.67 1013.06 1012.45 1011.79 1011.32 1010.75 1010.45 1010.03 1008.26 1005.63 1003.09 1003.93 1004.59 1004.86 1004.83 1004.49 1002.36 1001.03 1000.15 999.75 999.92 999.99 1000.38 1000.62 1001.59 1002.37 1003.06 1003.11 1003.93
1021.97 1021.63 1021.28 1020.90 1020.49 1020.17 1019.86 1019.49 1019.03 1018.58 1018.17 1017.66 1017.07 1016.45 1015.85 1015.27 1014.58 1013.81 1013.26 1012.76 1011.98 1011.39 1010.83 1010.38 1010.10 1010.07 1007.89 1004.03 1002.63 1003.39 1003.81 1004.34 1003.37 1002.85 1001.55 1000.93 1000.34 1000.01 999.93 1000.02 1000.37 1000.77 1001.73 1002.58 1002.93 1003.48 1003.82
1022.07 1021.73 1021.32 1020.89 1020.58 1020.25 1019.84 1019.41 1018.99 1018.54 1018.09 1017.57 1016.99 1016.28 1015.54 1014.96 1014.34 1013.46 1012.77 1012.25 1011.41 1010.87 1010.34 1009.89 1009.73 1009.17 1005.95 1002.67 1002.51 1002.69 1003.19 1003.10 1002.35 1001.91 1000.96 1000.97 1000.73 1000.09 999.72 1000.37 1000.68 1001.27 1001.88 1002.62 1003.11 1003.61 1003.86
1022.17 1021.85 1021.49 1021.05 1020.71 1020.35 1019.92 1019.44 1018.95 1018.46 1017.91 1017.38 1016.82 1016.08 1015.35 1014.71 1013.96 1013.19 1012.39 1011.74 1010.92 1010.29 1009.79 1009.34 1009.33 1008.07 1003.69 1002.58 1002.58 1002.61 1002.47 1002.36 1002.12 1001.69 1001.32 1001.29 1001.00 1000.16 999.73 1000.61 1001.10 1001.28 1001.80 1001.96 1003.15 1003.67 1004.33
1022.24 1021.96 1021.62 1021.25 1020.90 1020.52 1020.04 1019.50 1018.98 1018.48 1017.92 1017.27 1016.58 1015.80 1015.06 1014.33 1013.58 1012.68 1011.94 1011.17 1010.33 1009.80 1009.34 1009.09 1008.45 1006.07 1002.57 1003.45 1002.78 1001.87 1001.84 1001.66 1001.88 1001.70 1001.57 1001.65 1000.69 999.76 1000.31 1000.49 1000.76 1002.24 1002.62 1001.82 1002.85 1003.18 1003.88
1022.36 1022.08 1021.72 1021.34 1021.00 1020.63 1020.16 1019.64 1019.10 1018.56 1017.94 1017.26 1016.54 1015.73 1014.86 1014.03 1013.22 1012.29 1011.26 1010.35 1009.63 1009.58 1008.99 1007.78 1006.41 1004.78 1002.19 1001.42 1001.22 1001.42 1001.38 1001.12 1001.22 1001.23 1001.22 1000.96 999.95 999.35 999.47 1000.06 1002.81 1002.56 1001.13 1001.13 1001.80 1003.17 1003.22
1022.42 1022.14 1021.81 1021.40 1021.00 1020.62 1020.18 1019.66 1019.12 1018.56 1017.89 1017.16 1016.41 1015.50 1014.64 1013.72 1012.78 1011.95 1010.89 1008.34 1008.84 1008.00 1006.14 1003.39 1002.56 1001.71 1001.24 1001.11 1001.35 1001.24 1001.32 1001.00 1000.79 1000.71 1000.01 999.81 998.86 999.18 999.30 1000.09 1001.22 1000.66 1001.08 1000.74 1001.42 1002.66 1002.52
1022.41 1022.08 1021.78 1021.42 1021.00 1020.60 1020.15 1019.61 1019.04 1018.48 1017.80 1017.09 1016.36 1015.49 1014.65 1013.57 1012.54 1011.46 1011.06 1007.39 1007.83 1007.78 1005.06 1002.80 1002.43 1001.45 1001.81 1001.54 1000.91 1000.65 1001.00 1000.66 1000.34 999.70 999.27 998.67 998.45 999.86 999.31 999.07 999.34 999.60 999.98 1001.08 1001.31 1002.24 1002.24
1022.38 1022.06 1021.76 1021.49 1021.07 1020.62 1020.14 1019.61 1019.02 1018.40 1017.72 1017.00 1016.27 1015.47 1014.64 1013.39 1012.20 1010.79 1008.60 1008.00 1007.82 1007.25 1004.83 1001.26 1001.21 1001.03 1001.11 1001.32 999.99 999.50 1000.22 999.87 999.40 999.03 998.22 997.54 998.34 998.55 998.66 998.84 998.66 998.91 999.46 1000.00 1001.17 1001.93 1002.07
1022.37 1022.08 1021.87 1021.50 1021.05 1020.57 1020.06 1019.53 1018.95 1018.31 1017.59 1016.85 1016.13 1015.41 1014.66 1013.33 1012.20 1009.27 1007.74 1007.99 1007.45 1007.18 1003.65 1000.38 1000.37 999.99 999.99 1000.47 999.62 998.76 999.61 999.24 998.54 998.07 997.62 997.56 998.22 998.12 998.14 998.00 998.42 999.69 999.83 999.84 1000.48 1001.99 1001.49
1022.38 1022.15 1021.85 1021.49 1021.05 1020.54 1020.01 1019.43 1018.73 1018.06 1017.37 1016.55 1015.80 1015.21 1014.58 1014.59 1011.92 1008.40 1008.07 1007.77 1007.45 1006.55 1001.73 999.71 999.35 999.49 999.58 999.58 998.41 998.60 998.82 998.75 997.99 997.67 997.61 996.84 997.17 997.74 997.69 997.34 998.20 1002.74 1000.23 999.57 1000.03 1000.99 1000.68
1022.45 1022.22 1021.90 1021.55 1021.10 1020.58 1019.97 1019.29 1018.58 1017.87 1017.05 1016.09 1015.29 1014.86 1014.29 1012.11 1011.18 1008.88 1008.42 1007.81 1007.05 1004.52 999.76 998.94 998.85 999.19 998.81 998.99 997.66 998.00 998.47 998.79 998.17 997.73 997.35 997.03 997.15 997.33 996.91 997.75 998.25 998.91 999.15 999.10 999.18 999.40 999.78
1022.49 1022.20 1021.91 1021.55 1021.09 1020.56 1019.94 1019.30 1018.58 1017.71 1016.76 1015.74 1014.63 1014.25 1014.02 1011.63 1008.66 1008.95 1008.57 1007.03 1004.49 1001.03 998.93 998.18 998.06 998.08 998.16 997.91 997.75 997.14 998.01 997.92 997.55 997.11 996.74 997.21 997.02 997.16 997.71 997.32 997.97 998.22 998.11 998.35 998.80 998.64 1001.44
1022.53 1022.18 1021.82 1021.42 1020.96 1020.44 1019.80 1019.10 1018.42 1017.60 1016.61 1015.47 1013.82 1013.45 1012.11 1010.68 1009.67 1009.26 1008.13 1005.90 1002.14 998.99 997.93 998.38 997.97 997.55 997.25 996.97 997.32 996.77 997.22 997.13 997.49 996.73 995.87 996.25 996.33 996.77 997.18 996.63 997.07 997.60 997.65 1000.58 999.28 997.33 997.33
1022.57 1022.21 1021.82 1021.40 1020.94 1020.43 1019.81 1019.04 1018.16 1017.12 1016.03 1015.05 1013.02 1010.41 1009.56 1009.10 1009.38 1009.26 1007.26 1003.79 1000.09 998.94 998.73 998.47 998.02 997.37 996.71 996.46 996.54 996.43 996.12 996.27 996.38 996.31 995.36 995.05 995.25 995.98 996.50 996.84 996.86 997.22 999.84 1003.60 1000.71 996.95 995.87
1022.63 1022.24 1021.92 1021.53 1021.05 1020.51 1019.90 1019.21 1018.36 1017.27 1015.83 1014.68 1012.96 1009.49 1008.46 1009.14 1009.22 1008.43 1006.32 1002.66 1000.04 1000.12 1000.32 999.61 997.87 997.04 996.12 995.98 995.94 995.81 995.46 995.42 995.51 995.95 995.29 994.50 994.65 995.84 995.98 996.65 996.86 997.44 997.52 999.82 998.28 996.37 995.54
1022.68 1022.33 1021.96 1021.59 1021.17 1020.64 1020.03 1019.35 1018.51 1017.47 1015.99 1013.86 1012.57 1008.52 1008.58 1008.90 1008.80 1007.14 1004.37 1001.94 1000.70 1000.41 1000.93 999.92 998.60 997.40 996.61 995.63 995.65 995.52 994.90 995.08 995.20 995.24 995.50 994.67 994.35 995.40 995.63 996.17 995.62 996.45 996.79 996.69 997.69 995.53 995.14
1022.68 1022.29 1021.97 1021.63 1021.19 1020.70 1020.14 1019.47 1018.73 1017.80 1016.22 1013.41 1011.08 1007.74 1008.37 1008.57 1007.28 1005.05 1003.34 1002.01 1001.61 1000.90 1001.00 1000.79 1000.17 998.96 997.87 996.43 995.43 995.65 994.68 994.41 994.69 994.89 994.82 994.96 994.41 994.81 995.02 995.47 995.62 995.56 995.16 995.60 995.37 995.31 995.07
1022.66 1022.35 1022.02 1021.69 1021.27 1020.77 1020.26 1019.69 1019.04 1018.37 1017.89 1016.03 1011.64 1008.62 1007.86 1008.05 1005.83 1003.71 1002.82 1002.37 1002.15 1001.88 1001.34 1000.82 1000.22 999.54 998.78 998.07 996.91 995.57 995.02 994.99 994.91 994.76 994.62 995.26 995.04 995.11 994.89 994.98 994.90 994.95 994.58 994.79 993.69 995.56 993.52
1022.70 1022.34 1021.98 1021.64 1021.30 1020.90 1020.42 1019.84 1019.18 1018.44 1018.00 1016.99 1012.29 1008.50 1006.86 1007.36 1006.53 1005.50 1003.96 1002.66 1002.05 1002.20 1002.16 1001.26 1000.63 1000.05 999.67 999.00 998.02 996.79 995.62 995.73 996.25 996.02 996.24 995.55 995.02 994.66 994.27 994.09 994.14 994.89 994.30 993.99 993.34 992.45 993.18
1022.73 1022.38 1022.06 1021.70 1021.33 1020.90 1020.47 1020.01 1019.38 1018.45 1017.70 1017.01 1012.33 1009.52 1010.08 1007.35 1005.79 1005.81 1005.19 1004.22 1003.27 1002.26 1001.87 1002.06 1001.30 1000.56 999.80 999.23 998.11 997.43 996.15 995.80 996.83 996.64 996.37 995.89 994.78 994.53 994.09 994.11 993.49 993.66 993.99 993.71 993.32 992.64 993.00
1022.64 1022.33 1022.03 1021.69 1021.32 1020.94 1020.56 1020.18 1019.66 1018.78 1017.72 1015.94 1013.72 1012.49 1011.21 1010.15 1008.86 1007.92 1006.74 1005.69 1004.58 1003.58 1002.81 1001.71 1001.74 1000.89 1000.47 999.31 998.31 997.52 997.35 996.70 996.43 996.58 996.63 996.00 995.26 994.83 993.95 995.82 993.54 993.10 993.09 993.29 993.62 993.32 993.38
1022.46 1022.17 1021.91 1021.63 1021.32 1020.96 1020.58 1020.20 1019.77 1019.22 1018.64 1015.56 1014.85 1014.16 1013.57 1011.20 1009.59 1008.30 1007.01 1006.12 1005.28 1004.69 1003.92 1002.96 1001.94 1001.25 1000.49 999.66 999.27 998.10 997.71 996.85 996.42 995.58 995.80 995.65 995.19 994.59 993.65 994.10 993.73 993.37 992.94 992.59 993.00 993.29 993.27
1022.23 1021.98 1021.72 1021.44 1021.16 1020.84 1020.53 1020.21 1019.92 1019.55 1019.19 1017.24 1017.00 1015.82 1014.28 1011.87 1010.44 1009.21 1008.46 1007.90 1007.07 1006.26 1005.33 1004.28 1003.65 1001.97 1001.23 1000.29 999.54 999.25 998.78 998.26 997.55 996.72 995.64 994.98 994.75 994.58 993.99 993.96 992.89 992.24 992.63 993.04 992.86 992.95 993.13
1022.00 1021.75 1021.50 1021.24 1020.98 1020.72 1020.46 1020.23 1019.92 1019.53 1019.30 1018.18 1017.25 1016.68 1015.93 1013.66 1012.50 1011.38 1010.62 1009.75 1008.87 1008.01 1007.16 1006.63 1005.20 1003.34 1002.03 1001.54 1000.86 1000.13 999.81 999.15 997.95 997.51 996.59 995.66 994.86 994.37 993.93 993.18 992.90 992.42 992.16 992.29 992.61 992.75 992.92
1021.78 1021.61 1021.34 1021.06 1020.79 1020.51 1020.19 1019.92 1019.76 1019.53 1019.37 1018.70 1016.96 1017.14 1016.88 1015.89 1013.32 1012.87 1012.19 1011.50 1010.72 1009.36 1008.01 1007.04 1006.46 1005.08 1002.80 1001.81 1001.04 999.66 997.98 997.46 997.28 997.09 996.98 996.19 995.65 994.78 994.22 992.80 991.57 991.97 991.87 991.98 992.19 992.39 992.73
1021.44 1021.17 1021.00 1020.77 1020.53 1020.26 1020.01 1019.75 1019.60 1019.47 1019.28 1018.81 1016.94 1016.93 1017.65 1016.36 1014.57 1013.83 1012.97 1012.27 1011.81 1011.57 1010.32 1008.83 1007.76 1006.02 1004.24 1002.65 1000.46 999.20 997.69 996.49 995.95 995.66 995.82 995.66 995.14 994.49 993.73 993.00 992.17 991.66 991.29 991.73 991.61 992.29 992.31
1021.18 1021.00 1020.69 1020.50 1020.26 1019.97 1019.84 1019.58 1019.38 1019.26 1019.10 1018.67 1016.77 1016.25 1016.81 1016.27 1014.77 1014.02 1013.94 1013.47 1013.26 1012.75 1012.47 1011.23 1010.31 1007.71 1005.47 1003.19 1000.92 998.97 997.38 995.84 995.04 994.45 994.38 994.47 994.42 993.77 993.87 993.11 992.20 991.49 991.02 990.80 991.65 991.93 991.94
1020.79 1020.61 1020.49 1020.20 1019.97 1019.82 1019.49 1019.23 1019.04 1018.91 1018.82 1018.74 1017.03 1016.35 1016.92 1017.08 1015.49 1014.75 1014.11 1013.14 1012.70 1012.45 1012.74 1013.17 1012.37 1011.72 1008.72 1005.52 1002.15 999.64 997.23 995.65 994.46 993.25 993.41 993.94 993.43 993.37 992.98 992.46 992.62 991.85 991.16 990.83 991.17 991.74 991.90
Thickness
5704 5705 5707 5710 5713 5716 5720 5724 5727 5731 5736 5741 5746 5753 5760 5767 5773 5779 5783 5790 5796 5802 5807 5812 5816 5819 5835 5839 5852 5870 5866 5866 5867 5865 5867 5867 5866 5866 5841 5856 5855 5843 5840 5842 5841 5842 5833
5697 5699 5701 5704 5706 5709 5712 5716 5721 5726 5731 5736 5743 5749 5756 5762 5769 5777 5783 5789 5797 5803 5808 5813 5816 5817 5831 5827 5879 5874 5874 5868 5873 5871 5873 5875 5868 5876 5862 5857 5850 5854 5843 5837 5840 5834 5834
5691 5693 5695 5697 5700 5702 5705 5709 5713 5719 5724 5731 5737 5745 5752 5759 5765 5774 5782 5788 5798 5804 5809 5814 5816 5822 5834 5848 5878 5879 5875 5872 5882 5879 5872 5881 5882 5871 5875 5850 5866 5853 5829 5832 5832 5832 5827
5687 5688 5689 5691 5692 5694 5697 5702 5707 5712 5719 5725 5732 5740 5747 5755 5763 5771 5779 5787 5796 5804 5809 5814 5815 5825 5836 5874 5877 5873 5876 5874 5883 5887 5883 5886 5886 5877 5873 5872 5856 5843 5838 5809 5827 5829 5827
5683 5684 5685 5686 5686 5686 5688 5693 5700 5706 5712 5719 5727 5735 5743 5751 5760 5769 5778 5787 5795 5802 5807 5812 5818 5829 5835 5865 5855 5875 5878 5865 5873 5878 5881 5882 5882 5872 5867 5846 5836 5818 5779 5817 5814 5837 5825
5678 5679 5681 5682 5682 5681 5682 5686 5692 5699 5706 5713 5721 5729 5738 5748 5757 5767 5778 5788 5795 5798 5805 5817 5826 5817 5849 5846 5865 5871 5881 5879 5866 5866 5861 5864 5868 5858 5864 5836 5735 5794 5833 5832 5819 5824 5829
5674 5675 5676 5678 5679 5679 5680 5683 5688 5694 5701 5708 5716 5726 5735 5745 5756 5765 5777 5799 5795 5797 5814 5829 5834 5834 5846 5864 5871 5860 5871 5866 5866 5857 5840 5862 5850 5832 5850 5834 5820 5848 5837 5833 5837 5837 5830
5670 5672 5673 5675 5676 5677 5679 5682 5686 5691 5698 5704 5711 5721 5729 5741 5752 5763 5769 5797 5788 5792 5795 5833 5832 5839 5845 5854 5837 5852 5870 5844 5845 5835 5857 5856 5841 5847 5865 5870 5865 5861 5846 5825 5841 5841 5835
5667 5668 5670 5671 5673 5675 5678 5681 5685 5690 5696 5701 5708 5716 5724 5737 5749 5764 5783 5783 5793 5797 5791 5827 5834 5831 5835 5842 5839 5848 5859 5855 5845 5840 5855 5855 5854 5870 5865 5858 5859 5862 5848 5843 5823 5835 5840
5664 5665 5666 5667 5670 5673 5677 5680 5684 5689 5695 5700 5706 5713 5720 5733 5746 5771 5775 5781 5790 5794 5785 5812 5817 5830 5842 5840 5829 5871 5868 5858 5853 5846 5864 5861 5869 5863 5860 5859 5868 5828 5865 5858 5841 5810 5803
5661 5662 5663 5665 5667 5670 5674 5678 5684 5689 5695 5701 5707 5712 5718 5719 5742 5763 5770 5778 5785 5786 5771 5815 5822 5853 5843 5829 5847 5847 5875 5858 5842 5851 5863 5861 5864 5856 5851 5867 5873 5768 5855 5858 5849 5823 5825
5656 5657 5658 5661 5663 5667 5672 5676 5682 5688 5695 5702 5709 5713 5718 5736 5742 5760 5766 5773 5774 5760 5768 5801 5823 5815 5819 5826 5842 5852 5849 5862 5866 5854 5866 5866 5887 5874 5874 5873 5871 5870 5860 5859 5859 5846 5805
5652 5653 5654 5655 5658 5662 5667 5672 5678 5685 5693 5702 5711 5716 5718 5734 5754 5757 5762 5764 5754 5764 5810 5801 5806 5820 5817 5816 5823 5840 5827 5826 5823 5817 5830 5847 5856 5874 5875 5860 5870 5866 5858 5833 5821 5829 5734
5647 5648 5650 5652 5654 5658 5663 5669 5674 5681 5690 5700 5714 5718 5731 5738 5747 5751 5755 5752 5747 5796 5803 5810 5812 5818 5808 5824 5820 5831 5825 5819 5837 5845 5848 5830 5824 5856 5874 5873 5858 5859 5858 5789 5801 5843 5836
5642 5644 5645 5648 5650 5653 5658 5664 5671 5680 5690 5698 5716 5738 5741 5748 5746 5746 5745 5744 5773 5790 5796 5794 5804 5797 5806 5821 5822 5823 5829 5826 5840 5850 5840 5846 5845 5878 5878 5880 5879 5861 5805 5780 5814 5874 5867
5637 5639 5641 5642 5645 5648 5653 5659 5665 5674 5687 5696 5710 5735 5740 5740 5742 5742 5738 5745 5779 5786 5782 5786 5782 5804 5800 5812 5812 5817 5824 5845 5842 5856 5877 5872 5846 5865 5875 5879 5877 5861 5879 5823 5852 5832 5822
5632 5633 5635 5637 5639 5642 5647 5651 5659 5667 5679 5697 5707 5727 5733 5735 5736 5733 5734 5756 5772 5785 5776 5775 5782 5790 5803 5812 5817 5813 5827 5844 5853 5857 5867 5874 5868 5853 5871 5852 5859 5860 5853 5866 5850 5878 5840
5627 5629 5629 5630 5633 5635 5639 5644 5649 5657 5670 5692 5710 5717 5728 5729 5718 5739 5740 5757 5747 5768 5774 5769 5775 5784 5787 5807 5813 5809 5821 5842 5864 5864 5845 5867 5867 5838 5853 5880 5888 5878 5877 5876 5854 5857 5863
5621 5622 5623 5623 5625 5627 5630 5634 5638 5643 5647 5660 5691 5707 5725 5719 5710 5732 5746 5745 5750 5749 5755 5761 5764 5779 5789 5783 5782 5811 5827 5850 5854 5854 5853 5863 5842 5814 5837 5864 5882 5866 5881 5881 5904 5855 5872
5614 5614 5615 5616 5617 5618 5620 5624 5628 5633 5636 5645 5676 5690 5710 5706 5710 5706 5715 5729 5733 5747 5741 5756 5759 5771 5768 5768 5789 5792 5813 5825 5832 5839 5834 5857 5850 5840 5827 5847 5874 5851 5870 5883 5889 5872 5877
5605 5605 5606 5606 5607 5608 5610 5612 5615 5620 5626 5632 5667 5675 5667 5680 5699 5696 5702 5708 5709 5720 5741 5741 5740 5751 5758 5753 5772 5778 5805 5813 5817 5824 5834 5838 5827 5852 5864 5866 5885 5878 5871 5879 5874 5892 5874
5596 5596 5596 5595 5596 5596 5597 5597 5599 5603 5610 5625 5632 5637 5648 5651 5660 5660 5667 5678 5687 5703 5715 5725 5721 5741 5748 5750 5766 5770 5786 5798 5802 5821 5819 5838 5818 5844 5847 5828 5869 5866 5884 5885 5880 5882 5883
5588 5587 5585 5584 5583 5582 5582 5582 5583 5584 5586 5609 5612 5614 5611 5626 5639 5646 5657 5667 5676 5687 5699 5711 5720 5726 5732 5749 5767 5785 5793 5807 5818 5819 5817 5822 5824 5830 5824 5852 5857 5842 5860 5885 5885 5889 5886
5581 5579 5576 5574 5571 5570 5569 5568 5566 5567 5566 5578 5574 5580 5586 5601 5615 5624 5631 5638 5648 5660 5666 5683 5694 5709 5733 5757 5766 5769 5773 5782 5790 5801 5825 5821 5824 5833 5826 5841 5806 5870 5895 5889 5886 5893 5899
5572 5569 5566 5563 5560 5558 5556 5553 5553 5552 5549 5551 5552 5550 5548 5562 5568 5575 5583 5595 5613 5630 5638 5651 5673 5702 5729 5721 5716 5717 5729 5745 5765 5788 5804 5822 5823 5817 5814 5825 5849 5865 5882 5882 5875 5878 5905
5563 5558 5555 5552 5550 5548 5546 5544 5540 5535 5529 5527 5532 5522 5516 5516 5533 5535 5538 5548 5562 5586 5613 5635 5656 5676 5702 5699 5700 5698 5719 5746 5744 5765 5796 5809 5819 5813 5816 5812 5811 5859 5892 5908 5903 5857 5906
5555 5552 5548 5544 5542 5539 5536 5532 5527 5519 5513 5510 5517 5509 5493 5495 5512 5513 5517 5522 5531 5538 5560 5598 5619 5639 5672 5673 5693 5704 5721 5760 5745 5752 5763 5774 5790 5789 5807 5810 5838 5882 5903 5908 5847 5859 5911
5546 5542 5540 5536 5534 5531 5526 5521 5515 5508 5502 5498 5507 5502 5489 5487 5499 5501 5498 5499 5500 5504 5509 5547 5581 5616 5642 5661 5686 5708 5722 5750 5760 5777 5775 5774 5778 5788 5803 5797 5800 5889 5896 5870 5891 5909 5915
5539 5535 5531 5529 5526 5521 5518 5512 5506 5500 5493 5486 5493 5490 5478 5467 5481 5483 5486 5495 5497 5498 5497 5505 5532 5552 5604 5649 5680 5704 5719 5746 5758 5756 5795 5770 5798 5799 5812 5818 5860 5881 5889 5914 5918 5906 5913